Time,TemperatureF,DewpointF,PressureIn,WindDirection,WindDirectionDegrees,WindSpeedMPH,WindSpeedGustMPH,Humidity,HourlyPrecipIn,Conditions,Clouds,dailyrainin,SoftwareType,DateUTC
2013-03-31 00:03:00,42.0,-99.9,30.11,West,262,1.0,2.0,50,0.00,,,-99.99,,2013-03-31 04:03:00,
2013-03-31 00:13:00,42.0,25.0,30.11,West,262,1.0,2.0,50,0.00,,,-99.99,,2013-03-31 04:13:00,
2013-03-31 00:23:00,42.0,25.0,30.11,West,262,1.0,2.0,50,0.00,,,-99.99,,2013-03-31 04:23:00,
2013-03-31 00:33:00,43.0,23.0,30.12,West,271,1.0,2.0,45,0.00,,,-99.99,,2013-03-31 04:33:00,
2013-03-31 00:43:00,43.0,23.0,30.12,West,271,1.0,2.0,45,0.00,,,-99.99,,2013-03-31 04:43:00,
2013-03-31 00:53:00,43.0,23.0,30.12,West,271,1.0,2.0,45,0.00,,,-99.99,,2013-03-31 04:53:00,
2013-03-31 01:02:00,40.0,23.0,30.13,ESE,113,0.0,0.0,51,0.00,,,-99.99,,2013-03-31 05:02:00,
2013-03-31 01:12:00,40.0,23.0,30.13,ESE,113,0.0,0.0,51,0.00,,,-99.99,,2013-03-31 05:12:00,
2013-03-31 01:22:00,40.0,23.0,30.13,ESE,113,0.0,0.0,51,0.00,,,-99.99,,2013-03-31 05:22:00,
2013-03-31 01:32:00,38.0,25.0,30.13,ESE,113,0.0,0.0,60,0.00,,,-99.99,,2013-03-31 05:32:00,
2013-03-31 01:42:00,38.0,25.0,30.13,ESE,113,0.0,0.0,60,0.00,,,-99.99,,2013-03-31 05:42:00,
2013-03-31 01:53:00,38.0,25.0,30.13,ESE,113,0.0,0.0,60,0.00,,,-99.99,,2013-03-31 05:53:00,
2013-03-31 02:02:00,38.0,26.0,30.12,WSW,246,0.0,0.0,62,0.00,,,-99.99,,2013-03-31 06:02:00,
2013-03-31 02:12:00,38.0,26.0,30.12,WSW,246,0.0,0.0,62,0.00,,,-99.99,,2013-03-31 06:12:00,
2013-03-31 02:23:00,38.0,26.0,30.12,WSW,246,0.0,0.0,62,0.00,,,-99.99,,2013-03-31 06:23:00,
2013-03-31 02:33:00,39.0,23.0,30.11,WSW,246,0.0,0.0,53,0.00,,,-99.99,,2013-03-31 06:33:00,
2013-03-31 02:42:00,39.0,23.0,30.11,WSW,246,0.0,0.0,53,0.00,,,-99.99,,2013-03-31 06:42:00,
2013-03-31 02:53:00,37.0,23.0,30.11,West,263,0.0,0.0,57,0.00,,,-99.99,,2013-03-31 06:53:00,
2013-03-31 03:02:00,37.0,23.0,30.11,West,263,0.0,0.0,57,0.00,,,-99.99,,2013-03-31 07:02:00,
2013-03-31 03:12:00,37.0,23.0,30.11,West,263,0.0,0.0,57,0.00,,,-99.99,,2013-03-31 07:12:00,
2013-03-31 03:22:00,39.0,22.0,30.11,West,262,0.0,0.0,50,0.00,,,-99.99,,2013-03-31 07:22:00,
2013-03-31 03:33:00,39.0,22.0,30.11,West,262,0.0,0.0,50,0.00,,,-99.99,,2013-03-31 07:33:00,
2013-03-31 03:43:00,39.0,22.0,30.11,West,262,0.0,0.0,50,0.00,,,-99.99,,2013-03-31 07:43:00,
2013-03-31 03:52:00,39.0,22.0,30.11,West,262,0.0,0.0,50,0.00,,,-99.99,,2013-03-31 07:52:00,
2013-03-31 04:02:00,37.0,23.0,30.11,West,263,0.0,0.0,56,0.00,,,-99.99,,2013-03-31 08:02:00,
2013-03-31 04:12:00,37.0,23.0,30.11,West,263,0.0,0.0,56,0.00,,,-99.99,,2013-03-31 08:12:00,
2013-03-31 04:22:00,36.0,22.0,30.11,West,263,0.0,0.0,57,0.00,,,-99.99,,2013-03-31 08:22:00,
2013-03-31 04:32:00,36.0,23.0,30.11,West,263,0.0,0.0,58,0.00,,,-99.99,,2013-03-31 08:32:00,
2013-03-31 04:42:00,36.0,23.0,30.11,West,263,0.0,0.0,58,0.00,,,-99.99,,2013-03-31 08:42:00,
2013-03-31 04:52:00,35.0,23.0,30.11,West,263,0.0,0.0,60,0.00,,,-99.99,,2013-03-31 08:52:00,
2013-03-31 05:02:00,35.0,23.0,30.11,West,263,0.0,0.0,60,0.00,,,-99.99,,2013-03-31 09:02:00,
2013-03-31 05:12:00,35.0,23.0,30.11,West,263,0.0,0.0,60,0.00,,,-99.99,,2013-03-31 09:12:00,
2013-03-31 05:22:00,34.0,22.0,30.11,West,262,0.0,0.0,61,0.00,,,-99.99,,2013-03-31 09:22:00,
2013-03-31 05:33:00,34.0,22.0,30.11,West,262,0.0,0.0,61,0.00,,,-99.99,,2013-03-31 09:33:00,
2013-03-31 05:43:00,34.0,22.0,30.11,West,262,0.0,0.0,61,0.00,,,-99.99,,2013-03-31 09:43:00,
2013-03-31 05:53:00,34.0,22.0,30.11,West,262,0.0,0.0,61,0.00,,,-99.99,,2013-03-31 09:53:00,
2013-03-31 06:03:00,34.0,22.0,30.11,West,262,0.0,0.0,61,0.00,,,-99.99,,2013-03-31 10:03:00,
2013-03-31 06:13:00,34.0,22.0,30.11,West,262,0.0,0.0,61,0.00,,,-99.99,,2013-03-31 10:13:00,
2013-03-31 06:24:00,34.0,22.0,30.11,West,262,0.0,0.0,61,0.00,,,-99.99,,2013-03-31 10:24:00,
2013-03-31 06:33:00,34.0,22.0,30.10,West,262,0.0,0.0,61,0.00,,,-99.99,,2013-03-31 10:33:00,
2013-03-31 06:42:00,34.0,22.0,30.10,West,262,0.0,0.0,61,0.00,,,-99.99,,2013-03-31 10:42:00,
2013-03-31 06:53:00,34.0,22.0,30.10,West,262,0.0,0.0,61,0.00,,,-99.99,,2013-03-31 10:53:00,
2013-03-31 07:03:00,34.0,22.0,30.10,West,262,0.0,0.0,61,0.00,,,-99.99,,2013-03-31 11:03:00,
2013-03-31 07:12:00,34.0,22.0,30.10,West,262,0.0,0.0,61,0.00,,,-99.99,,2013-03-31 11:12:00,
2013-03-31 07:23:00,34.0,22.0,30.11,West,262,0.0,0.0,61,0.00,,,-99.99,,2013-03-31 11:23:00,
2013-03-31 07:32:00,34.0,22.0,30.11,West,262,0.0,0.0,61,0.00,,,-99.99,,2013-03-31 11:32:00,
2013-03-31 07:43:00,34.0,22.0,30.11,West,262,0.0,0.0,61,0.00,,,-99.99,,2013-03-31 11:43:00,
2013-03-31 07:53:00,37.0,22.0,30.10,West,263,0.0,0.0,54,0.00,,,-99.99,,2013-03-31 11:53:00,
2013-03-31 08:03:00,38.0,23.0,30.10,West,263,0.0,0.0,54,0.00,,,-99.99,,2013-03-31 12:03:00,
2013-03-31 08:12:00,38.0,23.0,30.10,West,263,0.0,0.0,54,0.00,,,-99.99,,2013-03-31 12:12:00,
2013-03-31 08:22:00,38.0,23.0,30.10,West,263,0.0,0.0,54,0.00,,,-99.99,,2013-03-31 12:22:00,
2013-03-31 08:33:00,38.0,25.0,30.10,SE,124,1.0,1.0,59,0.00,,,-99.99,,2013-03-31 12:33:00,
2013-03-31 08:42:00,38.0,25.0,30.10,SE,124,1.0,1.0,59,0.00,,,-99.99,,2013-03-31 12:42:00,
2013-03-31 08:53:00,38.0,25.0,30.10,SE,127,1.0,1.0,60,0.00,,,-99.99,,2013-03-31 12:53:00,
2013-03-31 09:02:00,42.0,28.0,30.10,ESE,118,1.0,2.0,58,0.00,,,-99.99,,2013-03-31 13:02:00,
2013-03-31 09:12:00,42.0,28.0,30.10,ESE,118,1.0,2.0,58,0.00,,,-99.99,,2013-03-31 13:12:00,
2013-03-31 09:22:00,42.0,28.0,30.10,ESE,107,1.0,2.0,57,0.00,,,-99.99,,2013-03-31 13:22:00,
2013-03-31 09:32:00,46.0,29.0,30.10,ESE,105,3.0,6.0,51,0.00,,,-99.99,,2013-03-31 13:32:00,
2013-03-31 09:42:00,46.0,29.0,30.10,ESE,105,3.0,6.0,51,0.00,,,-99.99,,2013-03-31 13:42:00,
2013-03-31 09:52:00,47.0,29.0,30.09,East,92,3.0,6.0,50,0.00,,,-99.99,,2013-03-31 13:52:00,
2013-03-31 10:03:00,47.0,29.0,30.09,East,92,3.0,6.0,50,0.00,,,-99.99,,2013-03-31 14:03:00,
2013-03-31 10:12:00,47.0,29.0,30.09,East,92,3.0,6.0,50,0.00,,,-99.99,,2013-03-31 14:12:00,
2013-03-31 10:22:00,50.0,34.0,30.09,SE,145,1.0,4.0,53,0.00,,,-99.99,,2013-03-31 14:22:00,
2013-03-31 10:32:00,50.0,34.0,30.09,SW,224,2.0,10.0,53,0.00,,,-99.99,,2013-03-31 14:32:00,
2013-03-31 10:43:00,50.0,34.0,30.09,SW,224,2.0,10.0,53,0.00,,,-99.99,,2013-03-31 14:43:00,
2013-03-31 10:52:00,50.0,34.0,30.09,SW,224,2.0,10.0,53,0.00,,,-99.99,,2013-03-31 14:52:00,
2013-03-31 11:03:00,53.0,32.0,30.09,SW,223,2.0,9.0,45,0.00,,,-99.99,,2013-03-31 15:03:00,
2013-03-31 11:13:00,53.0,32.0,30.09,SW,223,2.0,9.0,45,0.00,,,-99.99,,2013-03-31 15:13:00,
2013-03-31 11:23:00,54.0,31.0,30.08,South,188,3.0,9.0,42,0.00,,,-99.99,,2013-03-31 15:23:00,
2013-03-31 11:34:00,54.0,30.0,30.08,ESE,117,4.0,9.0,40,0.00,,,-99.99,,2013-03-31 15:34:00,
2013-03-31 11:43:00,54.0,30.0,30.08,ESE,117,4.0,9.0,40,0.00,,,-99.99,,2013-03-31 15:43:00,
2013-03-31 11:53:00,54.0,30.0,30.08,SSW,204,4.0,10.0,40,0.00,,,-99.99,,2013-03-31 15:53:00,
2013-03-31 12:03:00,54.0,30.0,30.08,SSW,204,4.0,10.0,40,0.00,,,-99.99,,2013-03-31 16:03:00,
2013-03-31 12:13:00,54.0,30.0,30.08,SSW,204,4.0,10.0,40,0.00,,,-99.99,,2013-03-31 16:13:00,
2013-03-31 12:23:00,54.0,31.0,30.07,SSW,211,4.0,9.0,41,0.00,,,-99.99,,2013-03-31 16:23:00,
2013-03-31 12:33:00,54.0,31.0,30.06,SE,138,4.0,12.0,42,0.00,,,-99.99,,2013-03-31 16:33:00,
2013-03-31 12:43:00,54.0,31.0,30.06,SE,138,4.0,12.0,42,0.00,,,-99.99,,2013-03-31 16:43:00,
2013-03-31 12:53:00,54.0,31.0,30.06,SW,225,3.0,9.0,41,0.00,,,-99.99,,2013-03-31 16:53:00,
2013-03-31 13:03:00,54.0,30.0,30.05,SW,214,5.0,12.0,39,0.00,,,-99.99,,2013-03-31 17:03:00,
2013-03-31 13:12:00,54.0,30.0,30.05,SW,214,5.0,12.0,39,0.00,,,-99.99,,2013-03-31 17:12:00,
2013-03-31 13:23:00,54.0,30.0,30.05,SW,214,5.0,12.0,39,0.00,,,-99.99,,2013-03-31 17:23:00,
2013-03-31 13:32:00,55.0,31.0,30.04,West,267,3.0,8.0,39,0.00,,,-99.99,,2013-03-31 17:32:00,
2013-03-31 13:43:00,55.0,31.0,30.04,West,267,3.0,8.0,39,0.00,,,-99.99,,2013-03-31 17:43:00,
2013-03-31 13:52:00,54.0,28.0,30.03,SSW,201,6.0,13.0,37,0.00,,,-99.99,,2013-03-31 17:52:00,
2013-03-31 14:03:00,54.0,28.0,30.03,SSW,201,6.0,13.0,37,0.00,,,-99.99,,2013-03-31 18:03:00,
2013-03-31 14:13:00,54.0,28.0,30.03,SSW,201,6.0,13.0,37,0.00,,,-99.99,,2013-03-31 18:13:00,
2013-03-31 14:22:00,54.0,28.0,30.03,SSW,201,6.0,13.0,37,0.00,,,-99.99,,2013-03-31 18:22:00,
2013-03-31 14:33:00,54.0,30.0,30.01,ESE,123,6.0,14.0,39,0.00,,,-99.99,,2013-03-31 18:33:00,
2013-03-31 14:43:00,54.0,30.0,30.01,ESE,123,6.0,14.0,39,0.00,,,-99.99,,2013-03-31 18:43:00,
2013-03-31 14:53:00,54.0,30.0,30.01,ESE,123,6.0,14.0,39,0.00,,,-99.99,,2013-03-31 18:53:00,
2013-03-31 15:03:00,54.0,31.0,29.99,WSW,239,5.0,13.0,42,0.00,,,-99.99,,2013-03-31 19:03:00,
2013-03-31 15:12:00,54.0,31.0,29.99,WSW,239,5.0,13.0,42,0.00,,,-99.99,,2013-03-31 19:12:00,
2013-03-31 15:22:00,53.0,32.0,29.98,SSW,200,4.0,12.0,44,0.00,,,-99.99,,2013-03-31 19:22:00,
2013-03-31 15:33:00,53.0,34.0,29.98,SSW,205,4.0,7.0,48,0.00,,,-99.99,,2013-03-31 19:33:00,
2013-03-31 15:43:00,53.0,34.0,29.98,SSW,205,4.0,7.0,48,0.00,,,-99.99,,2013-03-31 19:43:00,
2013-03-31 15:54:00,52.0,34.0,29.98,SW,222,5.0,11.0,50,0.00,,,-99.99,,2013-03-31 19:54:00,
2013-03-31 16:03:00,52.0,35.0,29.97,SE,145,5.0,13.0,52,0.00,,,-99.99,,2013-03-31 20:03:00,
2013-03-31 16:12:00,52.0,35.0,29.97,SE,145,5.0,13.0,52,0.00,,,-99.99,,2013-03-31 20:12:00,
2013-03-31 16:23:00,51.0,34.0,29.97,ESE,111,4.0,10.0,52,0.00,,,-99.99,,2013-03-31 20:23:00,
2013-03-31 16:34:00,51.0,35.0,29.97,South,169,5.0,10.0,54,0.00,,,-99.99,,2013-03-31 20:34:00,
2013-03-31 16:43:00,51.0,35.0,29.97,South,169,5.0,10.0,54,0.00,,,-99.99,,2013-03-31 20:43:00,
2013-03-31 16:52:00,51.0,35.0,29.97,SW,233,3.0,9.0,55,0.00,,,-99.99,,2013-03-31 20:52:00,
2013-03-31 17:03:00,50.0,35.0,29.97,ESE,109,3.0,12.0,56,0.00,,,-99.99,,2013-03-31 21:03:00,
2013-03-31 17:13:00,50.0,35.0,29.97,ESE,109,3.0,12.0,56,0.00,,,-99.99,,2013-03-31 21:13:00,
2013-03-31 17:22:00,50.0,35.0,29.97,ESE,109,3.0,12.0,56,0.00,,,-99.99,,2013-03-31 21:22:00,
2013-03-31 17:34:00,50.0,38.0,29.95,SE,146,3.0,9.0,62,0.00,,,-99.99,,2013-03-31 21:34:00,
2013-03-31 17:43:00,50.0,38.0,29.95,SE,146,3.0,9.0,62,0.00,,,-99.99,,2013-03-31 21:43:00,
2013-03-31 17:54:00,49.0,38.0,29.95,SSE,162,2.0,8.0,66,0.00,,,-99.99,,2013-03-31 21:54:00,
2013-03-31 18:04:00,49.0,38.0,29.95,SSE,162,2.0,8.0,66,0.00,,,-99.99,,2013-03-31 22:04:00,
2013-03-31 18:13:00,49.0,38.0,29.95,SSE,162,2.0,8.0,66,0.00,,,-99.99,,2013-03-31 22:13:00,
2013-03-31 18:23:00,48.0,39.0,29.93,ESE,120,2.0,5.0,71,0.00,,,-99.99,,2013-03-31 22:23:00,
2013-03-31 18:33:00,48.0,39.0,29.92,SE,127,3.0,5.0,72,0.00,,,-99.99,,2013-03-31 22:33:00,
2013-03-31 18:43:00,48.0,39.0,29.92,SE,127,3.0,5.0,72,0.00,,,-99.99,,2013-03-31 22:43:00,
2013-03-31 18:53:00,48.0,39.0,29.92,SE,138,3.0,5.0,72,0.00,,,-99.99,,2013-03-31 22:53:00,
2013-03-31 19:03:00,48.0,39.0,29.92,SE,138,3.0,5.0,72,0.00,,,-99.99,,2013-03-31 23:03:00,
2013-03-31 19:13:00,48.0,39.0,29.92,SE,138,3.0,5.0,72,0.00,,,-99.99,,2013-03-31 23:13:00,
2013-03-31 19:22:00,47.0,40.0,29.90,SE,143,2.0,5.0,76,0.00,,,-99.99,,2013-03-31 23:22:00,
2013-03-31 19:33:00,47.0,40.0,29.89,SE,143,3.0,6.0,76,0.00,,,-99.99,,2013-03-31 23:33:00,
2013-03-31 19:43:00,47.0,40.0,29.89,SE,143,3.0,6.0,76,0.00,,,-99.99,,2013-03-31 23:43:00,
2013-03-31 19:53:00,46.0,39.0,29.87,SE,130,3.0,7.0,77,0.00,,,-99.99,,2013-03-31 23:53:00,
2013-03-31 20:02:00,46.0,39.0,29.87,SE,130,3.0,7.0,77,0.00,,,-99.99,,2013-04-01 00:02:00,
2013-03-31 20:13:00,46.0,39.0,29.87,SE,130,3.0,7.0,77,0.00,,,-99.99,,2013-04-01 00:13:00,
2013-03-31 20:22:00,46.0,40.0,29.85,ESE,118,3.0,9.0,78,0.00,,,-99.99,,2013-04-01 00:22:00,
2013-03-31 20:32:00,46.0,40.0,29.83,SW,231,4.0,10.0,78,0.00,,,-99.99,,2013-04-01 00:32:00,
2013-03-31 20:43:00,46.0,40.0,29.83,SW,231,4.0,10.0,78,0.00,,,-99.99,,2013-04-01 00:43:00,
2013-03-31 20:52:00,46.0,40.0,29.82,South,191,3.0,6.0,79,0.00,,,-99.99,,2013-04-01 00:52:00,
2013-03-31 21:03:00,46.0,40.0,29.83,SE,127,3.0,9.0,80,0.00,,,-99.99,,2013-04-01 01:03:00,
2013-03-31 21:12:00,46.0,40.0,29.83,SE,127,3.0,9.0,80,0.00,,,-99.99,,2013-04-01 01:12:00,
2013-03-31 21:23:00,46.0,40.0,29.83,SE,127,3.0,9.0,80,0.00,,,-99.99,,2013-04-01 01:23:00,
2013-03-31 21:33:00,45.0,41.0,29.80,ESE,122,4.0,10.0,86,0.00,,,-99.99,,2013-04-01 01:33:00,
2013-03-31 21:43:00,45.0,41.0,29.80,ESE,122,4.0,10.0,86,0.00,,,-99.99,,2013-04-01 01:43:00,
2013-03-31 21:53:00,44.0,41.0,29.79,ESE,118,4.0,9.0,89,0.01,,,-99.99,,2013-04-01 01:53:00,
2013-03-31 22:03:00,44.0,41.0,29.79,ESE,118,4.0,9.0,89,0.01,,,-99.99,,2013-04-01 02:03:00,
2013-03-31 22:13:00,44.0,41.0,29.79,ESE,118,4.0,9.0,89,0.01,,,-99.99,,2013-04-01 02:13:00,
2013-03-31 22:23:00,43.0,41.0,29.77,ESE,109,3.0,6.0,91,0.02,,,-99.99,,2013-04-01 02:23:00,
2013-03-31 22:33:00,43.0,41.0,29.75,ESE,122,3.0,7.0,93,0.04,,,-99.99,,2013-04-01 02:33:00,
2013-03-31 22:43:00,43.0,41.0,29.75,ESE,122,3.0,7.0,93,0.04,,,-99.99,,2013-04-01 02:43:00,
2013-03-31 22:53:00,42.0,40.0,29.74,ESE,110,3.0,6.0,94,0.04,,,-99.99,,2013-04-01 02:53:00,
2013-03-31 23:03:00,43.0,42.0,29.72,East,88,2.0,4.0,96,0.08,,,-99.99,,2013-04-01 03:03:00,
2013-03-31 23:12:00,43.0,42.0,29.72,East,88,2.0,4.0,96,0.08,,,-99.99,,2013-04-01 03:12:00,
2013-03-31 23:23:00,43.0,42.0,29.71,East,89,2.0,4.0,96,0.09,,,-99.99,,2013-04-01 03:23:00,
2013-03-31 23:34:00,43.0,42.0,29.68,SSE,148,3.0,6.0,97,0.13,,,-99.99,,2013-04-01 03:34:00,
2013-03-31 23:43:00,43.0,42.0,29.68,SSE,148,3.0,6.0,97,0.13,,,-99.99,,2013-04-01 03:43:00,
2013-03-31 23:53:00,44.0,43.0,29.67,ESE,118,4.0,6.0,98,0.13,,,-99.99,,2013-04-01 03:53:00,